Terminal Aerodrome Forecast
Issued by NWS Blacksburg, VA

Home | Current Version | Previous Version | Text Only | Print | Product List | Glossary On
Versions: 1 2 3 4 5 6 7 8 9 10 11 12 13 14 15 16 17 18 19 20 21 22 23 24 25 26 27 28 29 30 31 32 33 34 35 36
000
FTUS41 KRNK 210522
TAFDAN
TAF
KDAN 210522Z 2106/2206 24003KT P6SM BKN100
     FM211500 27008KT P6SM SCT050
     FM211800 30010G18KT P6SM BKN050
     FM220100 30008KT P6SM BKN250=

USA.gov is the U.S. government's official web portal to all federal, state and local government web resources and services.